FW7716 Weather Reports


time (UTC)temp
C
wind
direction
speed
KPH
gust
KPH
rain 1hr
cm
rain 24hr
cm
rain mn
cm
humidity
%
barometer
mb
20260505004542 25 0 1.6 12.9 0.00 0.00 0.00 33 1007.7
20260505003039 26 54 0.0 19.3 0.00 0.00 0.00 32 1007.8
20260505001536 26 317 1.6 12.9 0.00 0.00 0.00 30 1007.9
20260505000048 26 138 3.2 11.3 0.00 0.00 0.00 29 1007.8
20260504234547 27 120 3.2 12.9 0.00 0.00 0.00 31 1007.8
20260504233056 26 132 3.2 16.1 0.00 0.00 0.00 33 1007.9
20260504231540 26 19 8.0 19.3 0.00 0.00 0.00 30 1008.0
20260504230037 26 112 0.0 16.1 0.00 0.00 0.00 32 1008.1
20260504224542 25 40 4.8 14.5 0.00 0.00 0.00 32 1008.2
20260504223059 25 118 1.6 17.7 0.00 0.00 0.00 31 1008.1
20260504221540 25 327 4.8 14.5 0.00 0.00 0.00 31 1008.1
20260504220039 25 54 4.8 12.9 0.00 0.00 0.00 32 1008.1
20260504214535 25 264 1.6 9.7 0.00 0.00 0.00 32 1008.1
20260504213049 26 42 3.2 16.1 0.00 0.00 0.00 30 1008.1
20260504211542 27 113 4.8 17.7 0.00 0.00 0.00 30 1008.2
20260504210044 26 38 3.2 20.9 0.00 0.00 0.00 32 1008.3
20260504204545 26 30 6.4 20.9 0.00 0.00 0.00 32 1008.5
20260504203041 26 38 4.8 19.3 0.00 0.00 0.00 32 1008.4
20260504201535 25 319 4.8 16.1 0.00 0.00 0.00 32 1008.6
20260504200044 25 36 3.2 14.5 0.00 0.00 0.00 31 1008.7
20260504194539 25 24 6.4 16.1 0.00 0.00 0.00 30 1008.8
20260504193039 25 100 4.8 12.9 0.00 0.00 0.00 31 1008.8
20260504191538 24 71 4.8 14.5 0.00 0.00 0.00 36 1008.9
20260504190036 24 344 8.0 19.3 0.00 0.00 0.00 36 1009.1
20260504184536 23 310 4.8 24.1 0.00 0.00 0.00 36 1009.2
20260504183040 23 46 8.0 16.1 0.00 0.00 0.00 34 1009.3
20260504181545 23 336 3.2 16.1 0.00 0.00 0.00 36 1009.2
20260504180039 22 314 3.2 16.1 0.00 0.00 0.00 36 1009.4
20260504174535 22 29 4.8 11.3 0.00 0.00 0.00 37 1009.5
20260504173041 21 66 1.6 8.0 0.00 0.00 0.00 45 1009.5
20260504171547 20 216 0.0 8.0 0.00 0.00 0.00 51 1009.5
20260504081539 10 0 0.0 0.0 0.00 0.00 0.00 76 1008.4
20260504044542 15 0 0.0 0.0 0.00 0.00 0.00 62 1008.5
20260504043043 15 0 0.0 0.0 0.00 0.00 0.00 63 1008.6
20260504041541 16 0 0.0 0.0 0.00 0.00 0.00 61 1008.5
20260504040059 17 0 0.0 0.0 0.00 0.00 0.00 60 1008.5
20260504034534 17 43 0.0 1.6 0.00 0.00 0.00 58 1008.4
20260504033034 18 0 0.0 1.6 0.00 0.00 0.00 56 1008.4
20260504031541 20 0 0.0 0.0 0.00 0.00 0.00 54 1008.4
20260504030058 21 0 0.0 0.0 0.00 0.00 0.00 46 1008.3
20260504024538 25 0 0.0 0.0 0.00 0.00 0.00 35 1008.4
20260504023037 27 0 0.0 0.0 0.00 0.00 0.00 32 1008.3
20260504021535 27 0 0.0 3.2 0.00 0.00 0.00 31 1008.4
20260504020042 27 172 0.0 4.8 0.00 0.00 0.00 30 1008.5
20260504014542 27 163 1.6 8.0 0.00 0.00 0.00 29 1008.5
20260504013047 27 161 3.2 6.4 0.00 0.00 0.00 28 1008.7
20260504011537 26 153 1.6 6.4 0.00 0.00 0.00 30 1008.7
20260504010033 26 167 3.2 9.7 0.00 0.00 0.00 30 1008.9